Other Public Products
Issued by NWS Charleston, SC

Current Version | Previous Version | Text Only | Print | Product List | Glossary Off
Versions: 1 2 3 4 5 6 7 8 9 10 11 12 13 14 15 16 17 18 19 20 21 22 23 24 25 26 27 28 29 30 31 32 33 34 35 36 37 38 39 40 41 42 43 44 45 46 47 48 49 50

204
FPUS82 KCHS 272212
OPUCHS

TEST...KCHS/KSAV Gateway Observations...TEST
National Weather Service Charleston SC
600 PM EDT THU APR 27 2017

NOTE: "fair" indicates few or no clouds below 12,000 feet with no
significant weather and/or obstructions to visibility.

SCZ050-WAZ558-NCZ071-TXZ119-213-PAZ071-DCZ001-FLZ074-172-MI076-
NYZ176-178-MAZ016-IL014-TNZ027-NJZ106-GAZ044-MD014-272300-

...Gateway Observations for Charleston International...

CITY           SKY/WX    TMP DP  RH WIND       PRES   REMARKS
Chas Airport   CLOUDY    81  59  47 S15G24    29.90S
Seattle        PTSUNNY   53  41  63 SW7       30.08R
Charlotte      CLOUDY    74  65  73 S9        29.86F
Dallas DFW     MOSUNNY   76  49  38 S18G25    29.61F
Dallas Love    MOSUNNY   76  48  37 S21       29.64F
Philladelphia  CLOUDY    77  64  64 S9        29.80F
Wash National  PTSUNNY   78  64  61 S13       29.76S
Baltimore      PTSUNNY   78  62  57 SE12      29.77R
Miami          MOSUNNY   84  74  71 SE17      29.92S HX  91
Detroit        MOSUNNY   64  45  49 SW21G35   29.64R
Newark         CLOUDY    62  56  80 SE10      29.88R
Laguardia      CLOUDY    65  56  72 SE13      29.88R
J F K          CLOUDY    59  57  93 SE10      29.90S
Boston Logan   PTSUNNY   53  51  93 E10       29.92S
Ft. Lauderdale MOSUNNY   84  75  74 SE18      29.90F HX  92
Chicago O`Hare CLOUDY    46  37  71 W18G30    29.70R
Chicago Midway CLOUDY    47  38  71 SW16G28   29.71R
Houston Bush   MOSUNNY   80  54  40 SE8       29.70F
Houston Hobby  MOSUNNY   78  56  46 VRB7      29.71F
Nashville      PTSUNNY   69  49  48 W8        29.83R
Atlanta        PTSUNNY   78  68  71 SW10      29.81S

$$

GAZ044-118-TXZ119-213-NCZ071-DCZ001-MDZ014-506-PAZ021-071-NJZ106-
NYZ176-178-MAZ106-OHZ011-021-055-MIZ076-KYZ091-ILZ014-INZ047-
MNZ060-ONZ431-272300-

...Gateway Observations for Savannah International...

CITY           SKY/WX    TMP DP  RH WIND       PRES   REMARKS
Savannah Arpt  CLOUDY    84  58  40 S16       29.87R
Atlanta        PTSUNNY   78  68  71 SW10      29.81S
Charlotte      CLOUDY    74  65  73 S9        29.86F
Dallas DFW     MOSUNNY   76  49  38 S18G25    29.61F
Houston Bush   MOSUNNY   80  54  40 SE8       29.70F
Wash National  PTSUNNY   78  64  61 S13       29.76S
Wash Dulles    PTSUNNY   80  57  45 S14       29.75R
Baltimore      PTSUNNY   78  62  57 SE12      29.77R
Philadelphia   CLOUDY    77  64  64 S9        29.80F
Newark         CLOUDY    62  56  80 SE10      29.88R
Laguardia      CLOUDY    65  56  72 SE13      29.88R
J F K          CLOUDY    59  57  93 SE10      29.90S
Boston         PTSUNNY   53  51  93 E10       29.92S
Pittsburg      CLOUDY    74  59  59 S14G22    29.65F
Akron          TSTM      70  56  61 W29G40    29.65R
Cleveland      CLOUDY    71  55  56 W17G24    29.65R
Cincinnati     PTSUNNY   61  47  59 SW12G21   29.79R
Columbus       PTSUNNY   70  53  55 W26G37    29.71R
Detroit        MOSUNNY   64  45  49 SW21G35   29.64R
Chicago O`Hare CLOUDY    46  37  71 W18G30    29.70R
Minneapolis    CLOUDY    35  24  64 NW13      29.64R WCI  26
Indianapolis   PTSUNNY   56  44  64 W14       29.78R
Toronto Canada PTSUNNY   70  57  64 SW21G31   29.56R

$$




USA.gov is the U.S. government's official web portal to all federal, state and local government web resources and services.